ギブス彗星

P/2008 Y2 ( Gibbs )

English version
Home page
Updated on May 9, 2009

---------------------------------------------------------------------

・ プロフィール

発見日 2008年12月31日
発見光度 18.2等
発見者 A. R. Gibbs (Catalina Sky Survey)

・ 写真集

・ 軌道要素

Epoch 2009 Jan. 9.0 TT = JDT 2454840.5
T 2009 Jan. 22.40945 TT                                 MPC
q   1.6384192            (2000.0)            P               Q
n   0.14491142     Peri.  162.34243     -0.68618629     -0.72481299
a   3.5897785      Node   330.89305     +0.65118993     -0.57432596
e   0.5435877      Incl.    7.27507     +0.32419137     -0.38052046
P   6.80

・ 光度変化

        m1 = 12.5 + 5 logΔ + 25.0 log r(t - 35)

---------------------------------------------------------------------

軌道要素はM.P.E.C. 2009-C60に掲載されたものです。
光度グラフはComet for Windowsで作成したものです。

---------------------------------------------------------------------

Copyright(C) Seiichi Yoshida (comet@aerith.net). All rights reserved.